Theta_e
343 337 339 340 337 336 335 335 336 336 336 336 336 335 334 333 332 332 329 329 329 329
341 337 337 339 338 336 337 334 335 334 336 336 335 335 334 333 332 332 332 331 330 328
335 338 338 339 336 335 335 335 335 334 336 336 334 334 333 331 334 332 332 332 331 329
335 333 332 335 332 335 336 331 333 334 333 333 334 333 333 331 332 331 331 329 327 328
334 334 335 334 331 335 331 335 331 330 330 333 333 334 332 330 331 328 326 328 327 326
333 336 336 334 332 332 332 333 331 328 331 332 332 333 331 331 331 327 327 324 325 325
334 335 335 332 333 334 333 332 329 331 332 332 333 332 331 332 331 328 326 326 327 326
334 335 333 331 334 332 333 330 330 330 331 332 332 326 329 331 331 329 326 328 328 324
332 332 331 332 334 333 331 331 330 329 331 331 325 308 312 322 330 331 329 326 327 322
331 330 331 331 330 331 331 332 331 331 331 329 324 304 304 308 333 331 331 328 329 327
328 328 330 330 331 333 333 333 333 332 333 329 320 307 303 305 332 332 330 331 330 329
328 329 328 329 330 333 334 333 333 334 332 328 325 306 302 317 331 331 331 331 331 329
330 330 330 333 334 335 335 335 333 331 333 320 326 304 302 317 331 329 329 328 322 311
332 335 336 336 336 336 330 332 333 331 332 331 327 318 304 307 332 330 328 327 325 316
Wind_Speed
6 4 2 3 4 2 3 4 4 3 2 4 4 4 4 3 3 3 2 4 3 3
5 6 5 4 4 3 4 4 4 4 2 1 3 3 3 2 4 4 3 2 3 3
5 6 5 3 5 4 4 2 5 4 3 2 2 1 3 3 3 3 0 2 3 2
6 6 5 4 6 4 2 4 4 5 4 4 1 4 3 2 0 1 2 3 1 2
6 6 5 4 6 5 4 4 4 5 5 5 5 3 4 2 2 3 4 4 2 1
6 6 5 5 5 7 5 4 5 4 7 5 5 3 4 1 2 5 4 2 4 3
7 6 5 7 4 4 6 5 3 6 4 5 5 1 2 2 2 6 4 3 5 4
6 7 7 6 7 5 4 4 3 5 4 6 6 6 7 6 4 6 5 4 4 5
7 10 7 5 5 5 4 6 5 4 4 8 6 7 10 7 3 7 8 6 6 7
8 10 8 7 6 5 3 3 4 4 8 8 6 8 8 9 4 6 7 5 8 10
10 9 8 7 6 6 4 3 5 4 6 9 5 6 9 10 5 7 8 5 9 11
10 9 7 7 7 6 4 5 6 5 6 10 4 4 8 6 5 7 7 8 10 11
11 9 8 7 7 5 4 4 5 5 5 11 6 5 6 4 5 7 7 7 8 12
11 9 8 7 6 4 7 6 6 8 6 9 7 4 5 6 6 7 8 8 8 5
Wind_Direction
133 169 209 138 99 130 173 118 203 121 189 227 221 233 220 210 191 237 200 233 188 219
149 98 99 93 91 146 117 165 181 137 183 262 270 216 205 195 216 218 199 197 217 234
130 121 116 123 114 143 143 201 117 161 186 204 167 193 157 208 211 191 3 310 34 55
137 131 127 130 116 136 116 100 154 209 167 142 192 77 114 133 49 226 216 136 100 15
150 120 135 133 138 132 171 186 240 241 141 164 88 70 34 43 158 93 323 118 245 166
138 119 135 151 164 165 189 197 256 210 110 97 98 109 99 144 259 129 150 48 354 151
135 143 152 142 192 180 168 187 173 109 112 109 107 83 91 49 151 102 126 85 40 41
142 134 152 161 197 157 166 185 120 116 94 114 76 43 28 38 87 116 136 115 74 62
159 155 158 192 141 154 153 110 117 116 140 80 75 27 42 25 92 103 108 101 109 109
138 139 165 157 135 113 119 118 133 101 102 97 87 35 26 1 104 103 108 95 100 94
149 146 161 125 128 130 115 120 135 141 121 100 77 27 18 353 106 101 104 125 102 108
142 156 142 134 124 128 158 173 166 142 125 105 106 33 24 9 91 104 115 99 110 114
148 136 137 128 125 152 157 128 100 118 102 107 116 52 16 1 114 114 108 79 84 92
137 121 120 123 139 160 117 121 117 112 117 116 120 78 30 65 125 124 121 117 111 104